Great Bend, KS

4:55 PM CST on November 23, 2017 (GMT -0600)
Great Bend Municipal

Weather History for KGBD - June, 2013

Change the Weather History Date:

Saturday, June 29, 2013

  Actual Average Record
Temperature  
Mean Temperature 76 °F -  
Max Temperature 91 °F 94 °F 107 °F (1998)
Min Temperature 62 °F 67 °F 50 °F (2000)
Cooling Degree Days 12    
Growing Degree Days 26 (Base 50)    
Moisture  
Dew Point 55 °F    
Average Humidity 50    
Maximum Humidity 83    
Minimum Humidity 27    
Precipitation  
Precipitation 0.00 in - - ()
Sea Level Pressure  
Sea Level Pressure 30.01 in    
Wind  
Wind Speed 8 mph (North)    
Max Wind Speed 22 mph    
Max Gust Speed 29 mph    
Visibility 10 miles    
Events Thunderstorm    
Averages and records for this station are not official NWS values.
T = Trace of Precipitation, MM = Missing Value Source: NWS Daily Summary

Daily Weather History Graph

Daily Weather History Graph

Search for Another Location

Airport or City:

Trip Planner

Search our weather history database for the weather conditions in past years. The results will help you decide how hot, cold, wet, or windy it might be!

Date:

Astronomy

Jun. 29, 2013 Rise Set
Actual Time 6:14 AM CDT 9:03 PM CDT
Civil Twilight 5:43 AM CDT 9:34 PM CDT
Nautical Twilight 5:03 AM CDT 10:14 PM CDT
Astronomical Twilight 4:18 AM CDT 10:59 PM CDT
Moon 12:38 AM CDT (6/29) 1:21 PM CDT (6/29)
Length of Visible Light 15h 51m
Length of Day
14h 48m
Waning Gibbous, 55% of the Moon is Illuminated
Jun 29
Waning Gibbous
Jun 29
Last Quarter
Jul 8
New
Jul 15
First Quarter
Jul 22
Full

Hourly Weather History & Observations

Time (CDT) Temp. Heat Index Dew Point Humidity Pressure Visibility Wind Dir Wind Speed Gust Speed Precip Events Conditions
12:15 AM 71.6 °F - 59.0 °F 64% 30.02 in 10.0 mi NNW 4.6 mph - N/A Thunderstorm Thunderstorm
12:35 AM 73.4 °F - 59.0 °F 61% 30.00 in 10.0 mi ENE 5.8 mph - N/A   Partly Cloudy
12:55 AM 73.4 °F - 59.0 °F 61% 30.02 in 10.0 mi NE 3.5 mph - N/A   Scattered Clouds
1:15 AM 69.8 °F - 62.6 °F 78% 30.03 in 10.0 mi WNW 6.9 mph - N/A   Mostly Cloudy
1:35 AM 71.6 °F - 60.8 °F 69% 30.02 in 10.0 mi NNW 6.9 mph - N/A   Mostly Cloudy
1:55 AM 69.8 °F - 60.8 °F 73% 30.02 in 10.0 mi NNW 3.5 mph - N/A   Partly Cloudy
2:15 AM 69.8 °F - 60.8 °F 73% 30.02 in 10.0 mi WNW 5.8 mph - N/A   Clear
2:35 AM 69.8 °F - 62.6 °F 78% 30.03 in 10.0 mi WSW 4.6 mph - N/A   Clear
2:55 AM 68.0 °F - 62.6 °F 83% 30.03 in 10.0 mi NNW 5.8 mph - N/A   Clear
3:15 AM 69.8 °F - 60.8 °F 73% 30.03 in 10.0 mi WNW 4.6 mph - N/A   Partly Cloudy
3:35 AM 68.0 °F - 60.8 °F 78% 30.03 in 10.0 mi NW 4.6 mph - N/A   Partly Cloudy
3:55 AM 66.2 °F - 60.8 °F 83% 30.04 in 10.0 mi NW 5.8 mph - N/A   Scattered Clouds
4:15 AM 66.2 °F - 60.8 °F 83% 30.04 in 10.0 mi WNW 8.1 mph - N/A   Partly Cloudy
4:35 AM 66.2 °F - 60.8 °F 83% 30.04 in 10.0 mi NW 4.6 mph - N/A   Clear
4:55 AM 66.2 °F - 57.2 °F 73% 30.04 in 10.0 mi NNW 5.8 mph - N/A   Clear
5:15 AM 64.4 °F - 57.2 °F 77% 30.04 in 10.0 mi NW 5.8 mph - N/A   Clear
5:35 AM 64.4 °F - 57.2 °F 77% 30.04 in 10.0 mi NW 3.5 mph - N/A   Clear
5:55 AM 62.6 °F - 57.2 °F 82% 30.03 in 10.0 mi NNW 4.6 mph - N/A   Clear
6:15 AM 62.6 °F - 57.2 °F 82% 30.04 in 10.0 mi NNW 5.8 mph - N/A   Clear
6:35 AM 62.6 °F - 57.2 °F 82% 30.05 in 10.0 mi WNW 4.6 mph - N/A   Clear
6:55 AM 64.4 °F - 59.0 °F 83% 30.05 in 10.0 mi NW 6.9 mph - N/A   Clear
7:15 AM 66.2 °F - 59.0 °F 78% 30.06 in 10.0 mi NNW 6.9 mph - N/A   Clear
7:35 AM 69.8 °F - 60.8 °F 73% 30.06 in 10.0 mi NW 6.9 mph - N/A   Clear
7:55 AM 71.6 °F - 60.8 °F 69% 30.06 in 10.0 mi WNW 8.1 mph - N/A   Clear
8:15 AM 73.4 °F - 59.0 °F 61% 30.06 in 10.0 mi NW 5.8 mph - N/A   Clear
8:35 AM 75.2 °F - 57.2 °F 53% 30.06 in 10.0 mi NNW 4.6 mph - N/A   Clear
8:55 AM 75.2 °F - 57.2 °F 53% 30.06 in 10.0 mi NW 5.8 mph - N/A   Partly Cloudy
9:15 AM 78.8 °F - 57.2 °F 47% 30.06 in 10.0 mi NNW 6.9 mph - N/A   Clear
9:35 AM 80.6 °F 80.5 °F 55.4 °F 42% 30.06 in 10.0 mi NNW 8.1 mph - N/A   Clear
9:55 AM 80.6 °F 80.5 °F 55.4 °F 42% 30.05 in 10.0 mi NW 8.1 mph - N/A   Clear
10:15 AM 82.4 °F 81.7 °F 55.4 °F 39% 30.04 in 10.0 mi NNW 8.1 mph - N/A   Clear
10:35 AM 82.4 °F 81.7 °F 55.4 °F 39% 30.03 in 10.0 mi NNW 9.2 mph - N/A   Clear
10:55 AM 84.2 °F 82.8 °F 53.6 °F 35% 30.02 in 10.0 mi North 13.8 mph 20.7 mph N/A   Clear
11:15 AM 86.0 °F 84.2 °F 53.6 °F 33% 30.03 in 10.0 mi North 13.8 mph 18.4 mph N/A   Clear
11:35 AM 84.2 °F 82.8 °F 53.6 °F 35% 30.02 in 10.0 mi NNW 9.2 mph 17.3 mph N/A   Clear
11:55 AM 87.8 °F 85.7 °F 53.6 °F 31% 30.02 in 10.0 mi North 15.0 mph 20.7 mph N/A   Clear
12:15 PM 87.8 °F - 51.8 °F 29% 30.02 in 10.0 mi North 18.4 mph 21.9 mph N/A   Clear
12:35 PM 87.8 °F - 51.8 °F 29% 30.02 in 10.0 mi NNW 12.7 mph 20.7 mph N/A   Clear
12:55 PM 87.8 °F - 51.8 °F 29% 30.02 in 10.0 mi North 15.0 mph 23.0 mph N/A   Scattered Clouds
1:15 PM 87.8 °F 85.7 °F 53.6 °F 31% 30.01 in 10.0 mi NE 6.9 mph 26.5 mph N/A   Scattered Clouds
1:35 PM 87.8 °F 85.7 °F 53.6 °F 31% 30.01 in 10.0 mi North 12.7 mph 18.4 mph N/A   Scattered Clouds
1:55 PM 89.6 °F 87.3 °F 53.6 °F 29% 30.00 in 10.0 mi North 15.0 mph 21.9 mph N/A   Partly Cloudy
2:15 PM 87.8 °F 85.7 °F 53.6 °F 31% 29.99 in 10.0 mi North 10.4 mph 19.6 mph N/A   Mostly Cloudy
2:35 PM 87.8 °F 85.7 °F 53.6 °F 31% 29.99 in 10.0 mi North 10.4 mph 26.5 mph N/A   Mostly Cloudy
2:55 PM 89.6 °F - 51.8 °F 27% 29.98 in 10.0 mi NNE 13.8 mph 20.7 mph N/A   Mostly Cloudy
3:15 PM 89.6 °F 87.3 °F 53.6 °F 29% 29.98 in 10.0 mi NNE 21.9 mph 25.3 mph N/A   Scattered Clouds
3:35 PM 91.4 °F 89.1 °F 53.6 °F 28% 29.97 in 10.0 mi NNE 17.3 mph 24.2 mph N/A   Partly Cloudy
3:55 PM 87.8 °F - 51.8 °F 29% 29.96 in 10.0 mi NNE 18.4 mph 25.3 mph N/A   Mostly Cloudy
4:15 PM 87.8 °F - 51.8 °F 29% 29.96 in 10.0 mi North 15.0 mph 24.2 mph N/A   Mostly Cloudy
4:35 PM 87.8 °F 85.7 °F 53.6 °F 31% 29.96 in 10.0 mi North 17.3 mph 28.8 mph N/A   Mostly Cloudy
4:55 PM 89.6 °F 87.3 °F 53.6 °F 29% 29.96 in 10.0 mi NNE 16.1 mph 28.8 mph N/A   Scattered Clouds
5:15 PM 89.6 °F 87.3 °F 53.6 °F 29% 29.95 in 10.0 mi NNE 20.7 mph 28.8 mph N/A   Mostly Cloudy
5:35 PM 89.6 °F 87.3 °F 53.6 °F 29% 29.94 in 10.0 mi NNE 17.3 mph 25.3 mph N/A   Mostly Cloudy
5:55 PM 89.6 °F 87.3 °F 53.6 °F 29% 29.94 in 10.0 mi North 18.4 mph 27.6 mph N/A   Scattered Clouds
6:15 PM 87.8 °F 85.7 °F 53.6 °F 31% 29.93 in 10.0 mi North 17.3 mph 26.5 mph N/A   Partly Cloudy
6:35 PM 87.8 °F - 51.8 °F 29% 29.93 in 10.0 mi NNE 19.6 mph 25.3 mph N/A   Clear
6:55 PM 87.8 °F - 51.8 °F 29% 29.93 in 10.0 mi NNE 18.4 mph 26.5 mph N/A   Clear
7:15 PM 86.0 °F - 51.8 °F 31% 29.94 in 10.0 mi NNE 17.3 mph - N/A   Clear
7:35 PM 84.2 °F - 50.0 °F 30% 29.94 in 10.0 mi NNE 15.0 mph 20.7 mph N/A   Clear
7:55 PM 84.2 °F - 48.2 °F 29% 29.94 in 10.0 mi NNE 16.1 mph 23.0 mph N/A   Clear
8:15 PM 82.4 °F - 48.2 °F 30% 29.95 in 10.0 mi NNE 13.8 mph 20.7 mph N/A   Clear
8:35 PM 80.6 °F - 48.2 °F 32% 29.96 in 10.0 mi NNE 13.8 mph - N/A   Clear
8:55 PM 78.8 °F - 46.4 °F 32% 29.96 in 10.0 mi NE 13.8 mph - N/A   Clear
9:15 PM 77.0 °F - 48.2 °F 36% 29.97 in 10.0 mi NNE 10.4 mph - N/A   Clear
9:35 PM 75.2 °F - 48.2 °F 38% 29.98 in 10.0 mi NE 5.8 mph - N/A   Clear
9:55 PM 73.4 °F - 48.2 °F 41% 29.99 in 10.0 mi NE 5.8 mph - N/A   Clear
10:15 PM 69.8 °F - 48.2 °F 46% 30.00 in 10.0 mi NNE 3.5 mph - N/A   Clear
10:35 PM 68.0 °F - 50.0 °F 52% 30.00 in 10.0 mi NNW 4.6 mph - N/A   Clear
10:55 PM 66.2 °F - 50.0 °F 56% 30.00 in 10.0 mi North 6.9 mph - N/A   Clear
11:15 PM 66.2 °F - 50.0 °F 56% 30.00 in 10.0 mi North 6.9 mph - N/A   Clear
11:35 PM 64.4 °F - 50.0 °F 59% 30.01 in 10.0 mi North 8.1 mph - N/A   Clear
11:55 PM 64.4 °F - 48.2 °F 56% 30.01 in 10.0 mi NNE 5.8 mph - N/A   Clear